FW7688 Weather Reports


Display with metric or nautical units.
time (UTC)temp
F
wind
direction
speed
MPH
gust
MPH
rain 1hr
in
rain 24hr
in
rain mn
in
humidity
%
barometer
mb
20260506113039 58 224 2.0 4.0 0.00 0.02 0.00 89 1009.4
20260506111640 57 223 1.0 3.0 0.00 0.02 0.00 89 1009.6
20260506110041 57 231 2.0 4.0 0.00 0.02 0.00 89 1009.8
20260506104557 57 120 2.0 7.0 0.00 0.02 0.00 89 1009.6
20260506103039 57 207 2.0 5.0 0.00 0.02 0.00 89 1009.5
20260506101532 57 222 2.0 6.0 0.00 0.02 0.00 89 1009.4
20260506100051 56 193 2.0 5.0 0.00 0.02 0.00 90 1009.3
20260506094550 56 216 2.0 6.0 0.00 0.02 0.00 90 1009.3
20260506093047 55 201 1.0 4.0 0.00 0.02 0.00 89 1009.2
20260506093013 56 212 1.0 5.0 0.00 0.02 0.00 89 1009.2
20260506091545 56 206 1.0 4.0 0.00 0.02 0.00 88 1009.3
20260506090025 57 203 0.0 4.0 0.00 0.02 0.00 87 1009.3
20260506084521 57 243 2.0 7.0 0.00 0.02 0.00 87 1009.6
20260506083034 57 219 1.0 3.0 0.00 0.02 0.00 86 1009.7
20260506081518 57 218 0.0 4.0 0.00 0.02 0.00 84 1009.8
20260506073006 62 208 0.0 4.0 0.00 0.02 0.00 76 1009.5
20260506071502 63 277 2.0 6.0 0.00 0.02 0.00 74 1009.8
20260506070107 63 243 1.0 6.0 0.00 0.02 0.00 73 1009.8
20260506061534 64 183 3.0 6.0 0.00 0.02 0.00 70 1010.0
20260506044526 64 196 1.0 4.0 0.00 0.02 0.00 71 1010.5
20260506043019 64 257 1.0 4.0 0.00 0.02 0.00 71 1010.6
20260506041517 64 225 1.0 4.0 0.00 0.02 0.00 71 1010.5
20260506040048 64 212 1.0 5.0 0.00 0.02 0.00 70 1010.5
20260506034515 64 216 2.0 6.0 0.00 0.02 0.02 69 1010.5
20260506033014 64 247 1.0 4.0 0.00 0.02 0.02 69 1010.5
20260506031523 64 257 1.0 5.0 0.00 0.02 0.02 69 1010.5
20260506030012 64 251 1.0 6.0 0.00 0.02 0.02 68 1010.4
20260506024542 64 186 3.0 5.0 0.00 0.02 0.02 68 1010.5
20260506023047 64 255 1.0 5.0 0.00 0.02 0.02 68 1010.5
20260506021506 64 216 1.0 4.0 0.00 0.02 0.02 67 1010.5
20260506020009 66 230 0.0 3.0 0.00 0.02 0.02 63 1010.5
20260506014501 67 151 1.0 4.0 0.00 0.02 0.02 60 1010.2
20260506013100 67 239 0.0 2.0 0.00 0.02 0.02 61 1010.1
20260506013030 67 195 0.0 2.0 0.00 0.02 0.02 61 1010.1
20260506011600 67 157 0.0 0.0 0.00 0.02 0.02 61 1009.9
20260506004556 67 133 0.0 2.0 0.00 0.02 0.02 61 1009.7
20260506003103 68 127 0.0 2.0 0.00 0.02 0.02 60 1009.6
20260506001606 68 141 0.0 0.0 0.00 0.02 0.02 59 1009.4
20260506000055 70 138 0.0 2.0 0.00 0.02 0.02 57 1009.3
20260505234609 71 235 0.0 3.0 0.00 0.02 0.02 53 1009.0
20260505233049 75 207 4.0 7.0 0.00 0.02 0.02 38 1009.0
20260505231556 75 243 1.0 7.0 0.00 0.02 0.02 38 1008.7
20260505230047 75 233 2.0 0.0 0.00 0.00 0.02 39 1008.4
20260505230003 74 254 3.0 8.0 0.00 0.02 0.02 39 1008.4
20260505224606 74 116 1.0 6.0 0.00 0.02 0.02 50 1008.2
20260505223102 76 196 1.0 8.0 0.00 0.02 0.02 45 1008.2
20260505221534 77 274 4.0 10.0 0.00 0.02 0.02 38 1007.8
20260505220009 77 225 3.0 7.0 0.00 0.02 0.02 39 1007.8
20260505214507 76 274 3.0 10.0 0.00 0.02 0.02 43 1007.8
20260505213006 76 165 3.0 14.0 0.00 0.02 0.02 46 1007.9
20260505211527 77 253 3.0 9.0 0.00 0.02 0.02 46 1007.8
20260505210109 77 229 3.0 8.0 0.00 0.02 0.02 45 1007.5
20260505204600 78 214 3.0 9.0 0.00 0.02 0.02 45 1007.7
20260505204528 78 195 3.0 9.0 0.00 0.02 0.02 45 1007.7
20260505203014 78 205 3.0 10.0 0.00 0.02 0.02 44 1007.7
20260505201510 78 238 3.0 11.0 0.00 0.02 0.02 43 1007.7
20260505200015 78 219 4.0 8.0 0.00 0.02 0.02 45 1008.0
20260505194510 79 193 3.0 11.0 0.00 0.02 0.02 42 1008.2
20260505193102 79 208 6.0 11.0 0.00 0.02 0.02 40 1008.4
20260505193002 79 232 5.0 11.0 0.00 0.02 0.02 41 1008.3
20260505191558 79 279 5.0 8.0 0.00 0.02 0.02 39 1008.3
20260505191514 79 260 5.0 8.0 0.00 0.02 0.02 39 1008.5
20260505190059 79 278 5.0 10.0 0.00 0.02 0.02 42 1008.5
20260505184553 79 266 6.0 12.0 0.00 0.02 0.02 41 1008.9
20260505183106 79 214 4.0 12.0 0.00 0.02 0.02 43 1008.9
20260505181612 79 245 4.0 11.0 0.00 0.02 0.02 44 1008.9
20260505180056 79 212 4.0 11.0 0.00 0.02 0.02 45 1009.2
20260505174543 78 221 2.0 12.0 0.00 0.02 0.02 47 1009.1
20260505173039 78 131 4.0 11.0 0.00 0.02 0.02 46 1009.2
20260505171540 78 221 2.0 9.0 0.00 0.02 0.02 47 1009.3
20260505170044 77 267 2.0 11.0 0.00 0.02 0.02 49 1009.5
20260505164535 77 235 2.0 8.0 0.00 0.02 0.02 51 1009.8
20260505163011 76 210 2.0 6.0 0.00 0.02 0.02 51 1010.2
20260505161506 74 262 4.0 9.0 0.00 0.02 0.02 54 1010.5
20260505153117 73 210 3.0 6.0 0.00 0.02 0.02 59 1010.9
20260505151652 72 263 1.0 8.0 0.00 0.02 0.02 58 1010.8
20260505124513 58 113 0.0 3.0 0.00 0.02 0.02 82 1010.9
20260505123008 56 118 0.0 2.0 0.01 0.02 0.02 85 1011.0
20260505121509 54 158 0.0 3.0 0.02 0.02 0.02 88 1011.2
20260505120013 54 121 0.0 0.0 0.02 0.02 0.02 89 1011.2
20260505114506 54 87 0.0 0.0 0.02 0.02 0.02 90 1011.3